Location: Newark
(54.3386°S, 169.8415°W)
Time: 11:17:31
(UTC+00:00)

Transit 2A Rocket - Pass Details

Date: 26 October 2019
Orbit: 594 x 909 km, 66.7° (Epoch: 20 November)

Event Time Altitude Azimuth Distance (km) Brightness Sun altitude
Rises 03:28:12 0° 325° (NW) 3,245 9.0 23.8°
Reaches altitude 10° 03:30:30 10° 325° (NW) 2,370 8.4 23.5°
Maximum altitude 03:36:01 81° 51° (NE) 868 5.6 22.7°
Drops below altitude 10° 03:42:02 10° 137° (SE) 2,575 7.3 21.8°
Sets 03:44:37 0° 137° (SE) 3,544 8.0 21.4°
